星链-31305 (STARLINK-31305 )

导读

STARLINK-31305是美国太空探索技术公司(SpaceX)于2024年3月16日发射的星链(Starlink)低轨互联网通信卫星,属于星链星座组网的一部分。星链卫星采用平板设计,搭载霍尔推进器,具备自主避撞能力,运行在近地轨道,旨在为全球偏远、无基础设施覆盖区域提供高速低延迟宽带互联网服务,丰富并扩展全球卫星互联网覆盖网络。

基本信息
目录编号:
59232
目录名称:
STARLINK-31305
国际标识:
2024-049B
轨道中心:
EARTH
卫星名称:
星链-31305
卫星全名:
星链-31305 (STARLINK-31305 )
卫星状态:
在轨 (已飞行902 天)
发射日期:
2024-03-16 UTC
国别 :
美国 (US)
星等 :
--
轨道信息
数据来源 国际轨道数据 AOE轨道数据
星历时间 2026-09-03T15:31:11+0800
1天前
查看轨道信息
2026-09-04T00:00:00+0800
21小时前
查看轨道信息
半长轴 6861.202km 6861.192km
偏心率 0.000074 0.0001524
轨道倾角 43.003° 43.004°
近地点辐角 261.218° 273.012°
升交点赤经 220.194° 218.205°
平近点角 98.859° 232.470°
近地点 482.557km 482.009km
远地点 483.573km 484.101km
周期 94.267分钟 94.267分钟
每日圈数 15.27575 15.275782
详细信息
固有亮度:
5
最大亮度:
0.3
卫星平台:
Starlink v2.0 mini
覆盖范围:
全球
运营商:
太空探索技术公司
运营商所在国:
美国
制造商(研发单位):
太空探索技术公司
制造商所在国:
美国
使用方式:
暂无
卫星简介
星链(Starlink)计划是由太空探索技术公司(SpaceX)提出的一个巨型低轨卫星互联网星座项目,计划在2019年至2024年间在太空搭建由约1.2万颗卫星组成的“星链”网络,其中1584颗将部署在地球上空550千米处的近地轨道,并从2020年开始工作。该卫星仍在工作。
2D轨道图
3D轨道图
轨道高度分析图
轨道倾角分析图
轨道综合分析图
查看轨道综合分析图